Location: Bouillancy
(49.1149°N, 2.9308°E)
Time: 07:02:53
(UTC+00:00)

Cosmos 2278 Rocket - Pass Details

Date: 30 September 2020
Orbit: 841 x 845 km, 71.0° (Epoch: 29 October)

Event Time Altitude Azimuth Distance (km) Brightness Sun altitude
Rises 19:59:24 0° 227° (SW) 3,387 5.6 -24.9°
Reaches altitude 10° 20:01:57 10° 234° (SW) 2,456 4.9 -25.2°
Maximum altitude 20:07:21 46° 307° (NW) 1,130 3.2 -26.0°
Drops below altitude 10° 20:12:47 10° 20° (NNE) 2,471 4.7 -26.8°
Sets 20:15:21 0° 26° (NNE) 3,410 5.4 -27.2°
